Regional Weather Roundup
Issued by NWS

Home | Current Version | Previous Version | Text Only | Print | Product List | Glossary On
Versions: 1 2 3 4 5 6 7 8 9 10 11 12 13 14 15 16 17 18 19 20 21 22 23 24 25 26 27 28 29 30 31 32 33 34 35 36 37 38 39 40 41 42 43 44 45 46 47 48 49 50
000
ASUS43 KDTX 221910
RWRMI
MICHIGAN HOURLY REGIONAL WEATHER ROUNDUP
NATIONAL WEATHER SERVICE DETROIT/PONTIAC MI
200 PM EST WED NOV 22 2017

NOTE: "FAIR" INDICATES FEW OR NO CLOUDS BELOW 12,000 FEET WITH NO
SIGNIFICANT WEATHER AND/OR OBSTRUCTION TO VISIBILITY.

MIZ047>049-052>055-059>063-066>070-074>076-081>083-222000-
SOUTHEAST LOWER MICHIGAN

CITY           SKY/WX    TMP DP  RH WIND       PRES   REMARKS
ADRIAN         CLOUDY    34  17  50 NW5       30.27S WCI  30
ALMA           CLOUDY    33  17  52 W9        30.27S WCI  25
ANN ARBOR      PTSUNNY   34  17  50 VRB3      30.24F
BAD AXE        CLOUDY    31  15  52 W7        30.24R WCI  24
CARO           CLOUDY    32  20  61 W8        30.24S WCI  25
DETROIT CITY   CLOUDY    34  15  46 W9        30.25F WCI  27
DETROIT        CLOUDY    36  17  46 NW5       30.26F WCI  32
FLINT          CLOUDY    32  17  54 NW10      30.26S WCI  24
GROSSE ILE     CLOUDY    34  18  52 NW3       30.25F
HILLSDALE      PTSUNNY   32  18  55 NW6       30.24S WCI  26
HOWELL         CLOUDY    32  18  56 W7        30.24F WCI  26

CITY           SKY/WX    TMP DP  RH WIND       PRES   REMARKS
JACKSON        SUNNY     33  15  47 SW5       30.25F WCI  29
LAMBERTVILLE   PTSUNNY   37  19  47 NW5       30.27S WCI  34
LANSING        CLOUDY    32  18  56 W8        30.27F WCI  25
LAPEER         CLOUDY    32  19  57 NW7       30.24S WCI  26
MASON          MOSUNNY   32  17  54 NW3       30.26S
MONROE         MOSUNNY   37  17  44 W7        30.26S WCI  31
MT. CLEMENS    CLOUDY    33  19  56 N8        30.23F WCI  26
PONTIAC        CLOUDY    31  16  54 W9        30.23S WCI  23
PORT HOPE        N/A     32  17  54 NW9       30.22R WCI  24
PORT HURON     CLOUDY    32  16  51 NW7       30.24S WCI  26
TRI CITIES     CLOUDY    33  17  51 W9        30.26S WCI  25
MIDLAND        CLOUDY    34  17  50 W6        30.25R WCI  29
TROY           CLOUDY    35  16  45 W6        30.26F WCI  30
SAGINAW HB     CLOUDY    32  18  55 SW3       30.25S
$$
MIZ043>046-050>051-056>058-064>065-071>073-077>080-222000-
SOUTHWEST LOWER MICHIGAN

CITY           SKY/WX    TMP DP  RH WIND       PRES   REMARKS
BATTLE CREEK   CLOUDY    34  19  54 W9        30.27F WCI  27
BENTON HARBOR  CLOUDY    35  20  54 W9        30.29F WCI  28
BIG RAPIDS     CLOUDY    31  16  53 W5        30.24S WCI  27
COLDWATER      MOSUNNY   33  16  50 W6        30.27S WCI  27
FREMONT        CLOUDY    32  19  58 W7        30.26S WCI  26
HOLLAND        CLOUDY    33  21  61 SW6       30.29F WCI  28
GRAND RAPIDS   CLOUDY    33  20  58 W9        30.27S WCI  25
IONIA          CLOUDY    33  18  53 SW6       30.26F WCI  27
KALAMAZOO      CLOUDY    34  18  52 W9        30.28F WCI  27
LUDINGTON      CLOUDY    31  19  58 SW7       30.26F WCI  25
MARSHALL       SUNNY     32  16  52 NW7       30.26S WCI  26
MOUNT PLEASANT CLOUDY    34  15  46 SW7       30.25R WCI  27
MUSKEGON       CLOUDY    34  20  56 W6        30.28F WCI  29
SOUTH HAVEN    CLOUDY    35  22  60 SW6       30.28F WCI  30
$$
MIZ016>042-222000-
NORTHERN LOWER MICHIGAN

CITY           SKY/WX    TMP DP  RH WIND       PRES   REMARKS
ALPENA         CLOUDY    33  18  53 VRB6      30.21S WCI  28
BEAVER ISLAND  CLOUDY    32  22  66 W6        30.21F WCI  26
BELLAIRE       CLOUDY    31  22  68 CALM      30.23S
CADILLAC       CLOUDY    29  16  58 SW6       30.20S WCI  23
CHARLEVOIX     CLOUDY    32  22  67 W5        30.24F WCI  27
FRANKFORT      CLOUDY    33  20  60 W6        30.24F WCI  27
GAYLORD        CLOUDY    27  18  69 W10       30.19R WCI  17
GRAYLING       CLOUDY    29  17  60 W6        30.21S WCI  23
HARBOR SPRINGS CLOUDY    32  20  62 CALM      30.20F
HOUGHTON LAKE  CLOUDY    29  16  58 W7        30.22S WCI  22
MANISTEE       CLOUDY    31  20  63 S8        30.25F WCI  23
OSCODA         CLOUDY    33  12  42 NW8       30.21F WCI  26
PELLSTON       CLOUDY    31  21  66 W7        30.21F WCI  24
ROGERS CITY    CLOUDY    32  19  59 W6        30.22S WCI  26
TRAVERSE CITY  CLOUDY    32  16  51 VRB6      30.23F WCI  26
$$
MIZ007>008-015-222000-
EASTERN UPPER MICHIGAN

CITY           SKY/WX    TMP DP  RH WIND       PRES   REMARKS
KINROSS        CLOUDY    31  23  72 W12       30.18F WCI  22
MACKINAC ISLAN CLOUDY    32  19  60 W10       30.19F WCI  23
NEWBERRY       CLOUDY    26  22  85 SW10      30.19S WCI  16
S. S. MARIE    LGT SNOW  27  22  81 CALM      30.17S
MUNISING         N/A     28  18  66 VRB5      30.19F WCI  23
$$
MIZ004>006-011>014-085-222000-
CENTRAL UPPER MICHIGAN

CITY           SKY/WX    TMP DP  RH WIND       PRES   REMARKS
MANISTIQUE     CLOUDY    30  12  47 W7        30.21S WCI  24
ESCANABA       CLOUDY    30  18  60 S10       30.21F WCI  21
MENOMINEE      CLOUDY    28  15  58 SW5       30.24F WCI  23
SAWYER-GWINN   PTSUNNY   25  16  68 SW9       30.16F WCI  15
$$
MIZ001>003-009>011-084-222000-
WESTERN UPPER MICHIGAN

CITY           SKY/WX    TMP DP  RH WIND       PRES   REMARKS
IRON MOUNTAIN  CLOUDY    27  13  55 S9        30.16F WCI  18
HOUGHTON       MOSUNNY   25  13  60 SW10      30.12F WCI  15
COPPER HARBOR    N/A     27  19  72 W8        30.14F WCI  19
IRONWOOD       CLOUDY    23  12  62 SW10      30.14F WCI  12
$$

ABBREVIATIONS USED IN REMARKS
   TC - TEMPERATURE IN CELSIUS
  WCI - WIND CHILL INDEX
   HX - HEAT INDEX
  VSB - VISIBILITY




USA.gov is the U.S. government's official web portal to all federal, state and local government web resources and services.